Regional Weather Roundup
Issued by NWS Newport/Morehead, NC

Current Version | Previous Version | Graphics & Text | Print | Product List | Glossary Off
Versions: 1 2 3 4 5 6 7 8 9 10 11 12 13 14 15 16 17 18 19 20 21 22 23 24 25 26 27 28 29 30 31 32 33 34 35 36 37 38 39 40 41 42 43 44 45 46 47 48 49 50

000
ASUS42 KMHX 262325
RWRMHX
WEATHER ROUNDUP FOR EASTERN NORTH CAROLINA
NATIONAL WEATHER SERVICE NEWPORT/MOREHEAD CITY NC
700 PM EDT TUE JUL 26 2016

NOTE: "FAIR" INDICATES FEW OR NO CLOUDS BELOW 12,000 FEET
WITH NO SIGNIFICANT WEATHER AND/OR OBSTRUCTIONS TO VISIBILITY

NCZ015>017-031-032-045>047-102-103-270000-
NORTH COAST

CITY           SKY/WX    TMP DP  RH WIND       PRES   REMARKS
EDENTON        DRIZZLE   79  72  79 N6        29.94R
ELIZABETH CITY LGT RAIN  81  75  82 N9        29.95R
KITTY HAWK     PTCLDY    89  77  67 SE3       29.92R HX 101
MANTEO         LGT RAIN  87  82  86 SW8       29.93R HX 106

$$

NCZ045>047-081-094-103-104-270000-
CENTRAL COAST

CITY           SKY/WX    TMP DP  RH WIND       PRES   REMARKS
FRISCO         SUNNY     84  77  79 SW12      29.95S

$$

NCZ095-097-098-100-101-270000-
SOUTHERN COAST

CITY           SKY/WX    TMP DP  RH WIND       PRES   REMARKS
BEAUFORT       SUNNY     85  77  77 SW15G23   29.97R
CEDAR ISLAND   NOT AVBL
JACKSONVILLE   MOSUNNY   90  75  62 S9        29.95R HX 100
PINEY ISLAND   NOT AVBL
WILMINGTON     MOSUNNY   88  72  58 SW12      29.96S


$$

NCZ011>013-027>030-043-044-078>080-089-090>093-098-270000-
COASTAL PLAIN

CITY           SKY/WX    TMP DP  RH WIND       PRES   REMARKS
AHOSKIE        CLOUDY    77  76  97 CALM      29.94R
CLINTON        SUNNY     93  76  58 S5        29.94S HX 105
ELIZABETHTOWN  NOT AVBL
GOLDSBORO      SUNNY     96  73  47 SW8       29.92R HX 105
GREENVILLE     SUNNY     91  77  62 W3        29.95R HX 105
HAVELOCK       SUNNY     88  72  58 S13       29.96S
KENANSVILLE    NOT AVBL
KINSTON        SUNNY     95  72  46 SW7       29.94R HX 103
NEW BERN       SUNNY     90  75  61 S9        29.96R HX 100
RICHLANDS      SUNNY     90  78  68 S10       29.95S HX 104
ROCKY MOUNT    SUNNY     93  78  61 SW3       29.93R HX 108
WASHINGTON     SUNNY     92  75  58 SW8       29.93R HX 103
WHITEVILLE     SUNNY     90  76  64 S6        29.95S HX 102

$$

AMZ130-135-150-152-154-156-158-170-250-252-270-ANZ085-086-088-633-658-670-270000-
MARINE OBSERVATIONS

STATION/POSITION TIME  TEMP    WIND        PRES    WAVE   SWELL
                       AIR SEA DIR/SP/G            HT/PER HT/PER
                 (UTC) (F)     (DEG/KT/KT) (MB)    (FT/S) (FT/S)
CHESAPEAKE LIGHT NOT AVBL
64 E VA BEACH    2250   82 81  190/  4/  4 1013.0    3/ 6   3/ 6
DUCK             2200   78 63                N/A
2 E DUCK         2211      73                N/A     1/ 5
OREGON INLET     2200   86 85                N/A
13E OREGON INLT  2300      82                N/A     3/ 6
HATTERAS CG      2200   85 83                N/A
DIAMOND BUOY     2250   85 85  230/ 17/ 21 1014.2    5/ 6
CAPE LOOKOUT     2300   85     220/ 11/ 15 1014.7
BEAUFORT LAB     2200   86 83                N/A
30 SE NEW RVR IN 2308   85 85  230/ 16/ 19 1015.2
30 SE NEW RVR IN 2225      85                N/A     4/ 5
27 SE WRIGHTSVLE 2308   85 84  220/ 14/ 17 1015.3
5 SE WRIGHTSVLE  2308   83 81  220/ 12/ 16 1015.7
225 S CAPE HAT   2250   84 85  260/  8/ 10 1017.1    2/ 7   2/ 7
41 SE CHARLESTON 2250   86 86  210/ 16/ 17 1015.2    3/ 4   2/ 8

$$



USA.gov is the U.S. government's official web portal to all federal, state and local government web resources and services.